Temperature
-2 -2 -2 -2 -2 -3 -3 -2 -2 -2 -2 -2 -3 -4 -4 -4 -4 -4 -5 -5 -5 -5 -5 -5 -5 -5 -5 -5 -5 -5 -5 -5 -5 -5 -5 -5 -5 -5 -5 -5 -5 -5 -5 -5
-3 -3 -3 -3 -3 -3 -3 -3 -3 -3 -3 -4 -4 -4 -5 -5 -5 -5 -5 -5 -5 -6 -5 -6 -6 -6 -6 -6 -6 -6 -6 -6 -6 -6 -6 -6 -6 -6 -6 -6 -6 -6 -5 -5
-3 -3 -3 -3 -3 -3 -4 -4 -4 -3 -3 -5 -6 -6 -6 -6 -5 -5 -5 -6 -6 -6 -6 -6 -6 -6 -7 -7 -7 -7 -7 -7 -7 -7 -7 -6 -6 -6 -6 -6 -6 -6 -6 -6
-4 -4 -2 -2 -5 -4 -4 -5 -6 -6 -6 -6 -6 -6 -6 -5 -5 -6 -6 -6 -6 -7 -7 -7 -7 -7 -7 -7 -7 -7 -7 -7 -7 -7 -7 -7 -7 -7 -7 -7 -7 -7 -6 -6
-4 -4 -4 -3 -5 -6 -6 -5 -7 -7 -6 -6 -7 -7 -6 -6 -6 -6 -6 -7 -7 -7 -7 -7 -7 -8 -8 -8 -8 -8 -8 -8 -8 -8 -8 -8 -8 -8 -8 -8 -7 -7 -7 -7
-5 -4 -3 -3 -6 -7 -6 -5 -7 -7 -8 -8 -8 -7 -7 -7 -7 -7 -7 -8 -8 -8 -8 -8 -8 -8 -9 -9 -9 -9 -9 -9 -9 -9 -9 -9 -8 -8 -9 -8 -8 -8 -8 -8
-5 -5 -5 -6 -8 -6 -5 -4 -7 -7 -7 -8 -8 -8 -8 -8 -8 -8 -8 -8 -8 -8 -9 -9 -9 -9 -9 -9 -9 -9 -9 -9 -9 -9 -9 -9 -9 -9 -9 -9 -9 -9 -9 -8
-6 -5 -4 -8 -8 -7 -6 -7 -7 -7 -7 -7 -8 -8 -8 -9 -9 -9 -9 -9 -9 -9 -9 -10 -10 -10 -10 -10 -10 -10 -10 -10 -10 -10 -10 -10 -10 -10 -10 -10 -10 -10 -10 -9
-6 -5 -7 -8 -8 -7 -7 -8 -8 -8 -8 -8 -8 -9 -9 -9 -9 -10 -10 -10 -10 -10 -10 -10 -11 -11 -11 -11 -11 -11 -11 -11 -11 -11 -11 -11 -11 -11 -11 -11 -11 -11 -11 -10
-9 -8 -9 -9 -8 -8 -8 -8 -8 -8 -8 -9 -9 -9 -10 -10 -10 -10 -10 -10 -11 -11 -11 -11 -11 -12 -12 -12 -12 -12 -12 -12 -12 -11 -11 -11 -11 -11 -12 -12 -12 -11 -11 -11
-9 -10 -10 -9 -8 -8 -8 -8 -9 -9 -9 -9 -9 -10 -10 -10 -11 -11 -11 -11 -12 -12 -12 -12 -12 -12 -12 -12 -12 -12 -12 -12 -12 -12 -12 -12 -12 -12 -12 -12 -12 -12 -12 -12
-8 -9 -10 -9 -8 -8 -9 -9 -9 -9 -9 -10 -10 -10 -11 -11 -11 -12 -12 -12 -12 -12 -12 -13 -13 -13 -13 -13 -13 -13 -13 -13 -13 -13 -13 -13 -13 -13 -13 -13 -12 -12 -12 -12
-9 -9 -9 -9 -9 -9 -9 -9 -10 -10 -10 -10 -11 -11 -11 -11 -12 -12 -12 -12 -13 -13 -13 -13 -13 -13 -13 -13 -14 -14 -14 -14 -14 -14 -14 -14 -14 -14 -13 -13 -13 -13 -13 -13
-10 -10 -10 -10 -10 -10 -10 -10 -10 -11 -11 -11 -12 -12 -12 -12 -12 -12 -13 -13 -13 -13 -13 -13 -13 -13 -14 -14 -14 -14 -14 -14 -14 -14 -14 -14 -14 -14 -14 -14 -14 -13 -13 -13
-10 -10 -10 -10 -11 -11 -11 -11 -11 -11 -12 -12 -12 -12 -12 -13 -13 -13 -13 -13 -14 -14 -14 -14 -14 -14 -14 -14 -14 -14 -15 -15 -15 -15 -15 -15 -15 -15 -15 -15 -15 -14 -14 -14
-11 -11 -11 -11 -11 -12 -12 -12 -12 -12 -12 -12 -13 -13 -13 -13 -13 -14 -14 -14 -14 -14 -14 -14 -14 -15 -15 -15 -15 -15 -15 -15 -15 -15 -15 -15 -15 -15 -15 -15 -15 -15 -15 -15
-11 -12 -12 -12 -12 -12 -12 -12 -12 -13 -13 -13 -13 -13 -14 -14 -14 -14 -14 -15 -15 -15 -15 -15 -15 -15 -15 -15 -15 -16 -16 -16 -16 -16 -16 -16 -16 -16 -16 -16 -16 -15 -15 -15
-11 -11 -11 -12 -12 -12 -13 -13 -13 -13 -14 -14 -14 -14 -14 -14 -14 -15 -15 -15 -15 -15 -15 -16 -16 -16 -16 -16 -16 -16 -16 -16 -16 -16 -16 -16 -16 -16 -16 -16 -16 -16 -16 -16
-12 -12 -12 -12 -12 -13 -13 -13 -14 -14 -14 -14 -14 -15 -15 -15 -15 -15 -16 -16 -15 -15 -16 -16 -16 -16 -16 -16 -17 -17 -17 -17 -17 -17 -17 -17 -17 -17 -17 -17 -17 -16 -16 -16
-12 -12 -13 -13 -13 -13 -14 -14 -14 -14 -15 -15 -15 -15 -15 -15 -16 -16 -16 -16 -16 -16 -16 -16 -17 -17 -17 -17 -17 -17 -17 -17 -17 -17 -17 -17 -17 -17 -17 -17 -17 -17 -17 -17
-12 -13 -13 -13 -14 -14 -14 -15 -15 -15 -15 -15 -16 -16 -16 -16 -16 -16 -17 -16 -16 -17 -17 -17 -17 -17 -17 -17 -18 -18 -18 -18 -18 -18 -18 -18 -18 -18 -18 -17 -17 -17 -17 -17
-13 -13 -14 -14 -14 -15 -15 -15 -15 -15 -16 -16 -16 -16 -17 -17 -17 -17 -17 -17 -17 -17 -17 -17 -17 -18 -18 -18 -18 -18 -18 -18 -18 -18 -18 -18 -18 -18 -18 -18 -18 -18 -18 -17
-14 -14 -14 -15 -15 -15 -15 -16 -16 -16 -16 -16 -17 -17 -17 -17 -17 -17 -17 -17 -18 -18 -18 -18 -18 -18 -18 -18 -18 -18 -18 -18 -18 -18 -18 -18 -18 -18 -18 -18 -18 -18 -18 -18
-14 -14 -15 -15 -15 -16 -16 -16 -16 -16 -17 -17 -17 -17 -18 -18 -17 -18 -18 -18 -18 -18 -18 -18 -18 -18 -19 -18 -18 -18 -18 -18 -18 -18 -18 -18 -18 -19 -18 -18 -18 -18 -18 -18
-15 -15 -15 -16 -16 -16 -16 -17 -17 -17 -17 -17 -17 -18 -18 -18 -18 -18 -18 -18 -18 -18 -18 -18 -19 -19 -19 -19 -19 -19 -19 -19 -19 -19 -19 -19 -19 -19 -19 -19 -19 -18 -18 -18
-15 -16 -16 -16 -17 -17 -17 -17 -17 -18 -18 -18 -18 -18 -18 -18 -18 -19 -19 -19 -19 -19 -19 -19 -19 -19 -19 -19 -19 -19 -19 -19 -19 -19 -19 -19 -19 -19 -19 -19 -19 -19 -18 -18
-16 -17 -17 -17 -17 -17 -18 -18 -18 -18 -18 -18 -18 -18 -19 -19 -19 -19 -19 -19 -19 -19 -19 -19 -19 -19 -19 -19 -19 -19 -19 -19 -19 -19 -19 -19 -19 -19 -19 -19 -19 -19 -19 -18
Wind_Speed
8 6 4 7 8 9 11 11 11 11 11 13 9 7 5 4 2 2 2 2 2 2 2 2 2 2 2 2 3 2 1 2 2 3 2 3 3 3 3 3 4 4 4 5
5 4 5 9 11 12 12 10 12 12 15 8 4 2 3 3 3 3 3 3 3 2 2 2 2 2 2 3 3 3 2 2 3 3 3 3 3 3 3 4 4 4 4 5
5 3 4 9 9 11 8 7 8 12 11 3 3 4 4 4 4 4 4 3 2 2 2 2 2 2 2 3 3 3 2 2 3 3 3 4 4 4 4 4 4 4 4 5
2 2 8 7 2 5 7 8 8 7 5 4 4 3 3 3 4 3 2 2 2 2 2 2 1 1 2 2 2 3 3 3 3 3 4 4 4 4 4 4 4 4 5 5
2 4 9 6 2 3 4 6 5 8 7 4 0 2 3 1 2 1 1 2 2 1 1 1 1 1 1 2 2 3 3 3 4 4 4 4 4 5 5 4 4 4 5 5
4 4 7 5 1 1 2 5 3 4 4 2 1 2 3 1 1 1 1 1 1 1 1 1 1 1 1 2 2 3 4 5 4 4 4 4 4 5 5 4 5 5 5 5
6 7 8 4 1 2 3 5 1 2 3 3 3 3 1 1 2 2 1 1 1 1 1 1 1 1 1 2 3 4 5 5 4 4 4 4 4 4 4 5 5 5 6 5
5 6 8 2 4 5 5 1 0 1 1 1 2 1 0 1 1 2 2 2 2 1 1 2 1 1 2 3 4 4 4 5 4 4 4 4 4 4 4 4 4 5 5 6
7 7 2 4 4 2 1 1 1 1 0 2 1 1 1 1 1 1 2 2 1 1 1 2 2 1 2 4 4 4 4 5 5 5 4 4 3 4 4 4 4 4 5 5
4 6 3 3 2 2 1 1 0 0 1 1 1 1 1 1 2 2 2 1 1 1 1 2 2 3 3 4 3 3 4 5 5 4 4 4 3 3 3 4 4 5 5 5
5 4 3 3 3 3 1 1 1 1 1 1 1 0 1 1 2 2 2 2 1 1 2 3 3 3 4 3 3 3 4 4 5 4 4 4 4 4 5 4 5 5 5 5
6 4 4 4 1 1 2 1 1 1 1 1 0 1 0 1 1 1 1 1 1 2 2 3 3 4 4 3 3 3 4 4 4 4 4 4 4 5 8 8 10 11 10 9
4 1 1 1 1 1 1 1 1 1 1 1 1 0 0 1 1 1 2 1 2 2 3 3 3 4 4 3 3 3 4 4 4 4 4 4 4 5 6 8 10 10 12 12
1 1 0 1 0 1 1 2 2 2 1 1 1 1 1 1 2 2 2 2 2 2 3 3 4 5 5 4 4 4 4 5 5 4 4 4 4 4 5 5 7 7 9 12
2 1 2 1 2 2 2 2 2 2 2 2 1 1 1 1 2 3 3 3 3 3 3 3 4 5 4 4 4 4 4 4 4 3 4 4 4 4 4 5 6 6 7 8
1 1 1 1 1 1 2 2 1 1 1 1 2 2 2 2 3 3 3 2 2 4 4 4 5 5 4 4 4 4 4 7 5 4 3 4 4 4 5 5 5 6 6 7
1 1 1 1 1 1 1 1 1 2 2 2 3 3 2 3 3 3 4 3 3 4 5 5 6 5 4 4 4 3 4 5 7 5 3 4 4 4 5 5 5 6 6 8
3 3 2 3 3 2 2 2 2 2 2 3 2 2 2 3 4 5 5 4 4 5 5 5 5 5 4 4 3 3 3 4 3 4 4 4 4 4 5 5 6 7 6 8
1 1 1 1 2 2 2 2 2 2 2 2 2 3 3 4 4 5 4 4 5 6 6 5 8 5 4 5 5 3 3 4 4 4 4 6 6 4 5 5 6 6 6 6
0 0 0 0 0 1 2 2 2 2 2 2 2 3 4 4 4 4 4 4 5 5 5 6 6 5 5 5 6 3 3 4 4 4 4 4 5 5 5 6 6 6 6 6
1 0 0 1 1 1 2 2 2 3 3 2 3 4 5 5 4 4 4 5 5 5 6 8 5 4 4 5 6 3 3 3 4 4 4 5 5 5 6 6 6 6 6 6
1 1 1 1 1 2 2 2 2 3 3 3 4 4 4 5 5 4 5 5 6 9 5 4 4 7 7 7 2 2 3 3 4 4 4 5 5 6 6 6 6 7 6 6
1 2 2 2 2 2 3 2 3 3 3 4 4 4 5 5 4 4 5 4 4 8 6 4 8 11 11 4 2 2 3 4 4 4 5 5 5 6 6 7 6 7 7 7
1 2 2 2 1 1 2 3 3 3 3 4 4 5 4 4 4 4 5 8 10 10 5 8 11 11 9 2 2 3 4 4 5 5 5 5 6 6 6 6 7 7 7 8
2 2 2 1 2 2 3 3 3 3 3 3 4 4 4 4 4 5 4 6 9 9 5 8 11 11 6 3 4 4 4 5 6 6 5 6 6 6 6 6 7 7 7 7
1 2 2 2 2 2 2 2 2 3 3 4 4 4 4 4 4 4 4 5 7 8 6 5 5 7 4 4 5 5 5 6 7 6 6 6 6 7 7 7 8 7 8 8
1 1 1 1 1 2 2 2 3 3 4 4 5 4 4 4 4 4 5 5 5 5 5 5 4 4 5 5 5 6 5 5 6 6 6 6 6 6 7 8 8 8 8 8
Wind_Direction
254 262 242 239 234 213 214 220 228 247 247 258 255 248 243 235 225 221 242 243 239 244 256 275 293 306 312 316 320 316 305 305 307 311 314 314 312 307 299 295 288 279 276 274
268 248 248 261 251 233 233 236 240 256 267 266 267 241 233 231 218 230 249 257 253 244 251 265 278 293 308 313 318 324 315 316 323 327 328 325 318 312 310 309 304 298 289 281
266 288 306 267 240 220 218 216 209 237 251 253 263 247 239 233 226 232 245 263 257 247 247 257 263 275 286 305 319 327 324 328 332 328 325 322 320 320 311 307 309 303 294 286
265 3 249 251 199 203 219 244 228 240 251 240 237 269 275 243 223 232 252 270 280 266 270 283 287 315 326 331 329 329 327 330 333 328 321 319 317 313 306 304 302 297 293 286
196 247 271 285 233 176 207 270 237 234 253 268 319 351 320 264 180 218 267 289 299 300 280 307 321 328 346 338 334 337 330 324 323 319 316 318 315 308 307 308 306 299 293 292
188 223 248 260 232 194 126 284 256 202 239 250 98 288 279 41 46 24 21 9 354 358 30 6 328 338 355 328 333 325 317 313 312 311 309 307 305 305 308 305 302 304 301 299
216 234 262 263 236 131 183 261 275 197 214 196 215 231 249 13 22 45 38 18 19 36 32 327 324 353 339 331 315 310 315 316 314 312 308 303 305 308 311 312 314 311 305 303
189 219 254 190 143 189 225 299 160 212 228 203 201 212 21 22 20 21 18 16 23 32 3 352 2 3 330 317 313 319 322 318 314 314 312 315 317 314 313 313 312 310 308 307
198 217 252 173 196 228 202 199 233 241 220 153 174 227 301 348 348 360 354 350 4 30 358 348 349 341 309 311 321 325 325 318 311 312 310 312 309 309 313 314 311 308 308 308
246 264 259 237 259 290 230 198 223 131 123 144 182 239 323 326 336 341 343 344 358 21 343 324 329 325 307 315 324 319 314 312 310 311 312 313 307 302 302 302 305 306 307 305
249 275 308 280 248 249 233 152 106 69 92 146 162 234 273 308 319 322 334 346 348 319 302 303 313 311 312 318 319 311 307 308 311 310 305 303 304 295 295 283 291 299 295 295
239 231 216 254 264 210 174 188 171 125 32 24 140 211 277 297 306 315 319 328 326 315 305 305 308 306 309 311 304 300 308 311 311 312 310 310 308 310 306 307 307 307 309 309
246 290 227 272 359 77 134 146 118 126 150 354 14 88 322 313 329 338 323 312 299 296 297 299 300 300 305 308 303 290 289 297 302 309 310 310 309 310 313 316 315 316 317 317
301 63 360 292 245 41 89 87 81 70 61 56 20 20 21 345 333 328 309 296 294 297 298 298 298 298 302 303 298 293 289 293 299 297 300 301 301 301 303 309 315 316 318 319
311 234 204 97 64 55 63 70 65 42 32 19 17 1 343 321 312 311 311 311 316 312 304 302 300 300 305 300 298 293 292 294 294 295 298 298 300 300 299 300 302 307 313 317
319 33 103 108 100 53 57 65 50 326 337 336 332 325 320 311 307 312 316 314 305 300 300 298 295 300 303 299 299 295 289 297 303 299 298 302 301 302 302 301 302 304 307 312
147 231 219 237 250 260 246 242 243 267 293 299 299 307 317 319 317 313 310 304 287 285 288 287 292 301 301 294 288 290 290 294 301 302 297 296 298 298 298 299 301 303 303 307
208 214 198 202 215 236 265 272 266 274 278 287 302 307 300 294 292 296 302 306 305 301 294 290 292 295 293 294 289 286 283 282 285 289 292 292 294 293 295 296 298 300 304 308
213 212 215 224 219 218 240 259 272 277 286 290 292 286 279 276 277 286 298 302 300 299 298 294 306 310 298 294 299 282 281 281 284 286 286 291 298 296 294 293 295 298 302 304
48 54 185 286 241 214 246 267 279 285 283 272 277 288 291 287 284 288 292 284 271 268 281 292 298 297 292 288 298 283 276 276 280 284 286 287 289 293 293 294 296 298 300 299
285 307 297 285 295 281 254 255 260 272 283 273 264 272 281 288 286 281 285 293 291 281 283 296 303 295 292 291 293 278 272 276 280 282 284 285 288 290 292 294 296 297 298 298
273 278 278 276 279 291 285 266 254 262 274 275 274 275 283 290 291 285 266 267 285 301 305 288 287 293 299 300 286 276 276 279 280 281 280 282 285 288 290 292 293 295 296 295
256 255 263 264 261 274 288 275 260 257 262 267 272 274 276 281 283 283 291 287 285 297 304 285 291 300 306 310 291 280 278 280 281 280 280 281 281 283 285 288 289 291 292 292
254 259 262 263 246 261 284 287 283 274 267 269 266 266 272 286 286 268 269 295 304 305 303 297 303 305 311 321 294 284 280 278 278 278 278 279 279 279 280 283 286 288 288 288
247 248 241 236 251 264 273 287 293 289 288 287 283 278 272 265 272 284 286 290 300 307 305 305 307 311 318 302 289 283 280 277 277 279 276 279 279 279 279 280 281 284 285 284
241 256 252 247 252 262 272 279 287 291 296 299 298 291 284 281 279 281 285 286 289 304 308 302 304 306 301 291 284 281 278 285 292 290 281 279 279 279 281 282 282 281 282 282
267 272 275 287 285 270 266 267 276 285 289 290 294 292 291 294 295 293 292 294 296 297 295 295 294 291 288 286 285 284 280 278 278 278 278 277 277 277 278 279 282 283 285 284
Height
1476 1474 1475 1474 1472 1474 1475 1471 1470 1462 1463 1455 1455 1457 1457 1457 1458 1458 1458 1458 1457 1457 1457 1457 1457 1456 1456 1456 1457 1457 1456 1456 1456 1456 1456 1456 1455 1455 1455 1455 1455 1455 1455 1456
1476 1473 1473 1471 1466 1466 1467 1466 1465 1462 1458 1453 1454 1454 1455 1455 1455 1455 1455 1455 1455 1455 1454 1454 1454 1453 1453 1453 1453 1453 1453 1453 1453 1452 1452 1452 1451 1451 1450 1450 1450 1450 1450 1450
1474 1473 1470 1466 1460 1460 1460 1459 1460 1457 1452 1452 1453 1453 1452 1452 1452 1452 1452 1453 1452 1452 1452 1452 1451 1451 1450 1450 1450 1450 1450 1450 1449 1449 1449 1448 1448 1447 1446 1445 1445 1445 1445 1445
1476 1475 1469 1454 1455 1454 1455 1455 1454 1452 1450 1450 1450 1450 1450 1450 1450 1450 1450 1450 1450 1450 1449 1449 1449 1448 1448 1448 1448 1447 1447 1446 1446 1445 1445 1444 1444 1442 1442 1441 1440 1440 1439 1439
1477 1475 1463 1455 1453 1455 1456 1452 1450 1450 1448 1449 1449 1449 1448 1449 1449 1449 1449 1449 1448 1448 1447 1447 1446 1446 1446 1445 1445 1444 1443 1443 1442 1442 1441 1440 1439 1438 1437 1436 1435 1435 1435 1434
1475 1471 1461 1450 1453 1452 1455 1452 1447 1447 1447 1448 1448 1450 1448 1447 1447 1447 1447 1446 1446 1446 1445 1445 1444 1444 1443 1442 1441 1440 1440 1440 1439 1438 1437 1436 1435 1434 1433 1432 1431 1431 1430 1429
1471 1468 1458 1453 1452 1453 1455 1447 1446 1445 1445 1446 1447 1447 1447 1446 1445 1445 1445 1444 1444 1444 1443 1443 1442 1441 1440 1439 1438 1438 1437 1436 1436 1435 1434 1433 1432 1431 1430 1429 1427 1426 1425 1425
1468 1466 1456 1451 1451 1452 1447 1445 1444 1444 1444 1445 1444 1444 1444 1444 1444 1443 1443 1442 1442 1441 1441 1441 1440 1439 1437 1437 1436 1435 1434 1433 1432 1432 1431 1430 1429 1428 1426 1425 1423 1422 1421 1420
1457 1452 1447 1446 1445 1445 1444 1444 1443 1443 1443 1444 1443 1443 1443 1443 1442 1442 1441 1441 1440 1440 1439 1439 1438 1437 1435 1434 1433 1432 1431 1430 1429 1428 1427 1426 1425 1424 1423 1421 1420 1419 1417 1416
1454 1448 1445 1445 1444 1443 1443 1442 1442 1442 1443 1442 1442 1442 1442 1441 1440 1440 1439 1438 1438 1437 1437 1436 1436 1435 1433 1432 1431 1429 1428 1427 1426 1425 1423 1422 1422 1421 1419 1418 1417 1416 1414 1412
1451 1446 1444 1441 1441 1441 1441 1441 1441 1441 1441 1441 1441 1440 1440 1439 1439 1438 1437 1437 1436 1435 1434 1434 1433 1432 1431 1429 1428 1427 1425 1424 1423 1421 1420 1419 1418 1417 1416 1415 1415 1413 1411 1410
1443 1441 1442 1440 1439 1439 1439 1439 1439 1439 1439 1439 1439 1438 1438 1437 1437 1436 1436 1435 1434 1433 1432 1431 1430 1429 1428 1427 1426 1424 1422 1421 1420 1419 1417 1416 1414 1413 1412 1412 1411 1409 1408 1407
1438 1438 1438 1437 1438 1438 1437 1437 1437 1437 1437 1437 1437 1437 1436 1435 1435 1434 1433 1433 1432 1431 1430 1429 1428 1427 1425 1424 1423 1421 1420 1418 1417 1416 1415 1413 1411 1410 1408 1407 1407 1405 1404 1402
1437 1436 1436 1436 1436 1436 1436 1436 1436 1436 1436 1436 1435 1435 1434 1433 1433 1432 1431 1430 1430 1428 1427 1426 1425 1424 1423 1421 1420 1419 1417 1416 1414 1413 1412 1410 1409 1407 1405 1403 1401 1399 1399 1397
1435 1435 1435 1435 1435 1435 1435 1434 1434 1434 1434 1434 1434 1433 1432 1431 1430 1430 1429 1428 1427 1426 1425 1424 1422 1421 1420 1418 1417 1415 1414 1413 1411 1410 1409 1407 1406 1404 1402 1400 1398 1396 1394 1392
1433 1433 1433 1433 1433 1433 1433 1433 1432 1432 1432 1432 1432 1431 1430 1429 1428 1427 1427 1425 1424 1423 1422 1420 1419 1418 1417 1415 1414 1412 1411 1410 1408 1407 1405 1404 1402 1400 1399 1397 1395 1392 1390 1388
1431 1431 1431 1431 1432 1432 1432 1432 1431 1431 1431 1430 1429 1429 1428 1427 1426 1425 1424 1423 1421 1420 1419 1417 1416 1414 1413 1412 1410 1409 1408 1406 1405 1404 1402 1400 1399 1397 1395 1394 1391 1389 1387 1385
1430 1430 1430 1430 1430 1430 1430 1430 1430 1429 1428 1428 1427 1426 1425 1424 1423 1422 1421 1419 1418 1417 1416 1414 1412 1411 1410 1408 1407 1406 1404 1403 1402 1400 1399 1397 1396 1394 1392 1390 1388 1386 1383 1382
1428 1429 1429 1429 1429 1429 1428 1428 1427 1427 1426 1425 1424 1423 1422 1421 1420 1419 1417 1416 1414 1413 1412 1411 1409 1408 1406 1405 1404 1402 1401 1399 1398 1397 1395 1394 1392 1390 1388 1386 1384 1382 1380 1378
1427 1427 1427 1427 1427 1426 1426 1425 1425 1424 1423 1422 1421 1420 1419 1418 1417 1415 1414 1412 1411 1410 1408 1407 1406 1404 1403 1402 1400 1399 1398 1396 1395 1393 1392 1390 1388 1386 1385 1383 1381 1378 1376 1374
1426 1426 1425 1425 1424 1424 1423 1423 1422 1421 1420 1420 1418 1417 1416 1415 1413 1412 1410 1408 1408 1407 1405 1404 1402 1401 1400 1398 1397 1396 1394 1393 1391 1390 1388 1386 1384 1382 1381 1379 1377 1375 1372 1370
1424 1424 1423 1422 1421 1421 1420 1420 1419 1418 1417 1416 1415 1414 1412 1411 1410 1408 1407 1406 1404 1403 1401 1400 1399 1398 1396 1395 1394 1392 1391 1389 1387 1386 1384 1382 1380 1378 1377 1375 1373 1371 1368 1366
1422 1422 1421 1420 1419 1418 1418 1417 1416 1415 1414 1413 1412 1410 1409 1408 1406 1405 1403 1402 1401 1399 1398 1396 1395 1394 1393 1392 1390 1388 1387 1385 1383 1382 1380 1378 1376 1374 1373 1371 1368 1366 1364 1362
1419 1419 1418 1418 1417 1416 1415 1414 1413 1412 1411 1410 1409 1407 1406 1404 1403 1402 1400 1399 1397 1396 1394 1393 1392 1391 1389 1388 1386 1384 1382 1381 1379 1377 1376 1374 1372 1370 1368 1366 1364 1362 1360 1358
1417 1416 1416 1415 1414 1413 1412 1411 1410 1409 1408 1407 1406 1404 1403 1401 1400 1398 1396 1395 1393 1392 1390 1389 1388 1386 1385 1383 1381 1380 1378 1376 1375 1373 1371 1369 1367 1366 1364 1362 1360 1358 1356 1354
1414 1414 1413 1413 1412 1411 1410 1409 1407 1406 1405 1403 1402 1401 1400 1398 1396 1395 1393 1391 1390 1388 1387 1385 1384 1382 1380 1379 1377 1375 1374 1372 1370 1368 1366 1365 1363 1361 1359 1357 1355 1353 1351 1349
1412 1411 1411 1410 1409 1409 1407 1406 1405 1404 1402 1401 1399 1398 1396 1395 1393 1391 1390 1388 1386 1385 1383 1381 1380 1378 1376 1374 1373 1371 1369 1367 1365 1363 1362 1360 1358 1356 1354 1352 1350 1348 1346 1344